Location: Maccacari
(45.1333°N, 11.1333°E)
Time: 15:18:04
(UTC+00:00)

SR - Pass Details

Date: 20 June 2021
Orbit: 577 x 878 km, 66.7° (Epoch: 24 July)

Event Time Altitude Azimuth Distance (km) Brightness Sun altitude
Rises 00:17:08 0° 328° (NNW) 3,310 ? -20.1°
Reaches altitude 10° 00:19:39 10° 329° (NNW) 2,331 ? -20.0°
Maximum altitude 00:25:00 79° 57° (ENE) 743 ? -19.7°
Enters shadow 00:28:03 23° 142° (SE) 1,451 ? -19.5°
